#timestamp,LO_Frequency,Hit,StdDev 
1705492815.6,286046999.6,N
1705492835.4,286046996.5,N
1705492855.3,286046997.3,N
1705492875.1,286046997.5,N
1705492895.9,286046997.9,N
1705492915.7,286046997.2,N
1705492935.5,286046995.2,Y
1705492955.4,286046997.8,P
1705492975.2,286046997.7,P
1705492995.0,286046994.9,P
1705492996.0,286046994.9,Y
1705493015.8,286047000.8,P
1705493035.6,286046998.7,N
1705493055.5,286046999.3,N
1705493075.3,286046997.2,N
1705493095.1,286046997.2,N
1705493115.9,286046997.4,N
1705493135.7,286046997.3,N
1705493155.6,286046996.6,N
1705493175.4,286046997.1,N
1705493195.2,286046997.1,N
1705493215.1,286046997.4,N
1705493216.0,286046997.4,N
1705493235.8,286046997.1,N
1705493255.7,286046997.5,N
1705493275.5,286046996.8,Y
1705493295.3,286046998.7,P
1705493315.2,286046998.9,N
1705493335.0,286046998.2,P
1705493335.9,286046998.2,Y
1705493355.8,286047000.8,P
1705493375.6,286046998.5,N
1705493395.4,286047001.2,N
1705493415.3,286047000.9,N
1705493435.1,286046998.6,N
1705493455.8,286046998.1,N
1705493475.7,286046998.7,N
1705493495.5,286046998.7,N
1705493515.4,286046999.2,N
1705493535.2,286046996.7,N
1705493555.0,286046997.7,N
1705493555.9,286046997.7,N
1705493575.8,286046997.6,N
1705493595.6,286046994.9,Y
1705493615.4,286046997.5,P
1705493635.3,286046997.9,P
1705493655.1,286046994.9,P
1705493675.9,286046995.1,Y
1705493695.7,286046997.0,P
1705493715.5,286046997.8,P
1705493735.4,286046995.3,P
1705493755.2,286046995.3,Y
1705493775.1,286047000.7,P
1705493776.0,286047000.7,N
1705493795.8,286046999.2,N
1705493815.6,286046999.3,N
1705493835.5,286046997.0,N
1705493855.3,286046999.6,N
1705493875.2,286046997.1,N
1705493895.9,286046997.8,N
1705493915.7,286046995.6,Y
1705493935.6,286046997.1,P
1705493955.4,286046997.3,P
1705493975.3,286046995.3,P
1705493995.1,286046997.5,N
1705493996.0,286046997.5,N
1705494015.8,286046995.4,Y
1705494035.7,286046999.3,P
1705494055.5,286046999.6,N
1705494075.4,286046999.2,N
1705494095.2,286046996.9,Y
1705494115.0,286046998.9,P
1705494115.9,286046998.9,P
1705494135.8,286046998.9,P
1705494155.6,286046998.9,Y
1705494175.5,286047000.9,P
1705494195.3,286046998.2,N
1705494215.1,286046998.6,N
1705494235.9,286046998.1,N
1705494255.7,286046998.2,N
1705494275.5,286046999.0,N
1705494295.4,286046999.5,N
1705494315.2,286046999.5,N
1705494335.0,286046998.8,N
1705494336.0,286046998.8,N
1705494355.8,286046999.2,N
1705494375.6,286046996.9,Y
1705494395.5,286046998.9,P
1705494415.3,286046999.1,P
1705494435.1,286046999.5,P
1705494455.9,286046996.6,Y
1705494475.7,286046999.3,P
1705494495.6,286046999.4,P
1705494515.4,286046998.7,P
1705494535.2,286046999.4,N
1705494555.1,286046998.8,Y
1705494556.0,286046998.8,P
1705494575.8,286046999.3,P
1705494595.6,286046998.7,P
1705494615.5,286046999.0,Y
1705494635.3,286046998.6,P
1705494655.2,286046998.9,P
1705494675.9,286046999.6,N
1705494695.7,286046996.9,Y
1705494715.6,286046996.6,P
1705494735.4,286046996.6,N
1705494755.3,286046999.4,N
1705494775.1,286046996.5,N
1705494776.0,286046996.5,N
1705494795.8,286046996.7,N
1705494815.7,286046997.8,N
1705494835.5,286046997.1,N
1705494855.3,286046997.4,N
1705494875.2,286047011.9,Y
1705494895.0,286047000.9,P
1705494895.9,286047000.9,N
1705494915.8,286046998.1,N
1705494935.6,286046998.3,N
1705494955.4,286046998.6,N
1705494975.3,286046998.3,N
1705494995.1,286047000.8,N
1705495015.8,286047000.9,N
1705495035.7,286046998.3,N
1705495055.5,286047001.2,N
1705495075.4,286046998.4,N
1705495095.2,286046998.4,N
1705495115.0,286046998.6,N
1705495115.9,286046998.6,N
1705495135.8,286046998.5,N
1705495155.6,286047000.3,N
1705495175.4,286047000.7,N
1705495195.3,286047000.4,N
1705495215.1,286047000.5,N
1705495235.9,286047000.2,N
1705495255.7,286047000.6,N
1705495275.5,286046999.9,N
1705495295.4,286047000.6,N
1705495315.2,286047000.8,N
1705495335.0,286047000.7,N
1705495335.9,286047000.7,N
1705495355.8,286047000.8,N
1705495375.6,286047001.2,N
1705495395.5,286046998.5,N
1705495415.3,286047000.0,N
1705495435.1,286047000.8,N
1705495455.9,286047000.0,N
1705495475.7,286047002.4,N
1705495495.5,286047002.5,N
1705495515.4,286047001.6,N
1705495535.2,286047002.6,N
1705495555.1,286047003.5,N
1705495556.0,286047003.5,N
1705495575.8,286047004.3,N
1705495595.6,286047003.9,N
1705495615.5,286047004.4,N
1705495635.3,286047004.0,N
1705495655.2,286047003.5,N
1705495675.9,286047003.3,N
1705495695.7,286047003.7,N
1705495715.6,286047005.9,Y
1705495735.4,286047003.9,P
1705495755.2,286047001.7,N
1705495775.1,286047003.5,P
1705495776.0,286047003.5,Y
1705495795.8,286047002.7,P
1705495815.7,286047002.4,P
1705495835.5,286047002.2,P
1705495855.3,286047002.4,Y
1705495875.2,286047000.8,P
1705495895.0,286047000.3,N
1705495895.9,286047000.3,N
1705495915.8,286047000.1,N
1705495935.6,286047002.2,N
1705495955.4,286047002.6,N
1705495975.3,286047002.5,N
1705495995.1,286047002.4,N
1705496015.8,286047002.5,N
1705496035.7,286047002.1,N
1705496055.5,286047004.0,Y
1705496075.4,286046999.7,P
1705496095.2,286046999.7,N
1705496115.0,286047001.4,N
1705496115.9,286047001.4,N
1705496135.8,286047002.3,N
1705496155.6,286047002.4,N
1705496175.4,286047002.8,N
1705496195.3,286047001.8,N
1705496215.1,286047001.8,N
1705496235.9,286047004.4,Y
1705496255.7,286047000.0,P
1705496275.5,286047002.2,N
1705496295.4,286047001.9,N
1705496315.2,286047001.4,N
1705496335.1,286047002.5,Y
1705496336.0,286047002.5,P
1705496355.8,286047002.4,P
1705496375.6,286047002.3,P
1705496395.5,286047002.3,Y
